Reflectivity
-20 -20 -20 -20 -20 -20 -20 -20 -20 7 -19 -20 -20 -20 -20 -20 -20 -20 -20 -20 -20 -20 -20 -20 -20 -15 -3 7 -10 11 15 19 23 32 30 29 41 33
-20 -20 -20 -20 -20 -20 -20 -20 -20 -20 -1 -20 -20 -20 -20 -20 -20 -20 -20 -20 -20 -20 -20 -20 -12 -20 -20 -20 -4 -1 -6 13 9 23 14 12 35 8
-20 -20 -20 -20 -20 -20 -20 -20 -20 -20 -2 -19 -20 -20 -20 -20 -20 -20 -20 -20 -20 -20 -20 7 -19 -20 -20 -20 -20 -20 -5 2 3 14 -13 0 16 1
-20 -20 -20 -20 -20 -20 -20 -20 -20 -20 4 14 -20 -20 -20 -20 -20 -20 -20 -20 -20 -20 -20 -20 -20 -20 -20 -20 -19 -20 -20 -17 -6 -10 14 -2 6 2
-20 -20 -20 -20 -20 -20 -20 -20 -20 -14 8 10 -12 -11 -12 -20 -15 -20 -8 -20 -20 -20 -20 -20 -16 -9 -2 15 -20 -20 -20 -20 -13 -20 -2 3 -18 -4
-20 -20 -20 -20 -20 -20 -20 -4 3 7 -20 11 13 9 -8 -20 -20 -20 -20 -20 3 -14 -20 -18 -13 -2 -20 -3 -9 -15 -2 7 -16 -13 -9 -17 13 -20
-20 -20 -20 -20 -20 -10 4 3 9 -7 12 15 15 5 -20 -15 -7 -14 -6 -20 -20 -13 14 6 16 18 -19 -20 -20 -20 -12 -1 12 -2 -20 -20 -20 -11
-20 -20 -20 -20 -20 -20 -5 12 10 16 18 23 13 7 -3 -20 -6 -10 13 6 9 1 16 -20 -20 -12 -20 -20 -16 6 -19 17 -8 -3 -20 -20 -20 -20
-20 -20 -20 -20 -14 8 -17 -20 18 18 8 -5 9 4 4 6 13 14 17 16 8 -0 14 -7 -2 9 -8 3 -20 -20 -16 -6 17 3 -20 -20 -20 -20
-20 -20 -20 -6 -19 -7 -2 16 10 -13 -20 -20 0 11 15 15 12 9 15 15 13 14 13 15 10 4 0 -1 14 16 27 30 -4 -20 -20 -20 -13 7
-20 -20 6 -10 -20 1 22 16 5 -20 -20 -15 4 -4 -20 -0 -7 14 12 17 6 11 6 22 11 14 15 -18 -11 7 6 -20 -20 -20 -20 -20 -2 -9
-11 -19 -20 1 -17 20 8 6 6 -20 9 4 -20 -20 -20 -7 -14 9 12 14 11 9 18 24 -8 19 7 11 17 18 14 6 -8 -10 3 -19 -18 -15
12 8 -13 13 14 -12 -8 2 -6 5 -5 -8 -12 -2 1 4 8 8 8 11 13 9 16 28 12 14 11 9 -6 -3 -13 26 27 10 12 15 20 17
8 7 15 4 -20 -20 5 -10 -13 -2 -7 4 4 6 6 5 9 3 1 2 5 9 1 13 14 13 7 7 4 5 16 33 17 12 4 20 22 24
-17 19 -0 -20 -20 -14 -19 5 -18 0 5 8 10 8 7 4 7 7 6 -3 1 2 -0 12 4 2 5 5 3 9 7 23 25 19 14 16 16 26
16 9 -20 -20 -15 -3 -18 -20 -8 -1 5 8 9 8 6 4 8 6 9 8 14 12 17 4 4 8 7 3 6 12 3 22 20 20 25 29 31 31
6 -15 -20 -20 -11 -11 -6 -18 -19 -4 5 9 9 6 7 8 7 4 5 14 14 13 6 8 12 3 19 8 10 11 4 18 18 7 17 15 23 20
-20 -6 -17 6 5 5 3 2 -2 -17 6 8 7 8 9 7 7 4 11 16 9 8 5 7 9 8 11 9 7 8 11 17 16 17 18 4 14 28
-18 6 9 7 6 7 6 4 1 -14 6 7 6 9 6 10 11 16 13 9 10 10 8 7 7 11 10 6 13 16 13 17 16 12 -10 1 1 14
3 10 9 7 7 7 5 -1 3 3 3 5 10 8 10 14 13 14 12 12 6 6 -0 4 8 16 15 14 8 16 18 16 11 3 10 14 15 14
6 7 7 8 8 5 2 0 6 9 13 11 9 11 11 9 8 9 11 10 7 3 1 -5 -3 -1 6 10 11 8 14 16 16 13 13 13 10 5
4 8 7 7 5 2 4 6 6 4 9 4 -8 -0 -11 6 0 -17 -16 -12 -18 -20 -20 -20 -20 -18 -18 -8 3 5 2 -5 -9 -7 -7 -10 -4 -1
8 8 7 4 2 -1 7 8 7 1 -16 -16 0 1 -7 7 -20 -20 -20 -20 -20 -5 -20 -20 -10 -20 -20 -20 -20 -20 -20 -20 -19 -7 -20 -20 -20 -20
Wind_Speed
12 12 12 12 11 12 12 12 14 16 16 17 16 18 14 15 17 18 20 28 28 32 27 31 30 24 25 26 25 25 26 27 23 25 24 22 27 22
10 14 13 12 13 12 12 12 13 14 16 15 15 19 19 15 18 20 20 28 27 31 32 32 23 27 30 30 27 23 25 25 25 25 26 23 25 24
14 15 16 16 12 13 13 13 13 13 14 16 14 18 23 21 19 18 17 18 16 28 31 29 29 29 31 29 26 27 24 24 24 25 23 23 24 25
16 16 17 13 17 16 13 16 14 16 14 19 18 17 21 22 20 21 17 15 18 22 32 31 29 30 31 31 25 24 23 24 22 21 22 21 23 25
17 17 17 17 17 14 15 15 13 13 14 15 17 15 16 16 18 18 19 18 15 23 28 29 28 27 29 28 28 25 24 22 18 17 19 19 18 22
17 16 17 17 18 18 16 17 15 16 16 15 15 15 15 17 15 15 15 14 16 15 21 24 27 27 26 25 25 26 18 17 18 18 17 17 15 20
17 16 16 18 23 21 14 16 18 17 15 15 15 14 15 15 16 15 15 15 16 15 14 12 12 12 13 23 23 26 25 20 19 17 20 19 19 21
16 17 16 20 19 26 27 29 25 19 20 15 15 16 20 17 16 15 16 16 16 13 14 14 12 12 14 12 24 26 28 25 23 21 21 21 21 24
16 17 16 13 19 18 22 28 25 25 24 20 19 18 21 19 20 20 19 17 17 15 15 16 11 13 12 14 26 28 30 29 25 20 20 22 24 25
17 17 18 19 18 21 20 19 18 19 19 16 18 18 19 20 19 18 20 20 17 14 10 15 11 14 12 11 26 28 27 21 24 26 27 26 25 25
16 17 18 19 25 30 18 19 21 19 21 27 31 30 32 32 25 14 13 14 14 13 8 12 11 12 10 13 13 16 17 21 28 31 30 27 23 19
16 18 23 23 29 30 23 17 17 19 19 21 17 20 21 19 26 15 12 14 13 15 7 7 11 10 8 5 4 8 9 23 31 24 22 23 16 5
13 13 13 26 28 34 34 17 18 23 21 16 15 14 14 14 12 11 14 13 14 14 13 11 9 10 9 11 10 10 6 11 10 10 16 13 15 15
16 13 15 30 33 32 24 27 30 25 12 13 13 13 13 13 12 14 17 16 15 18 17 13 10 8 9 10 11 8 4 7 5 7 7 14 21 22
14 18 31 31 30 21 24 27 25 12 12 13 14 13 12 14 16 15 15 17 17 15 11 11 6 8 8 10 9 8 3 4 5 7 7 7 7 7
17 15 22 23 23 21 17 15 12 12 13 13 13 13 14 14 13 13 12 12 11 8 1 1 6 8 8 9 9 7 2 2 3 7 8 8 8 9
22 13 12 12 12 13 12 13 12 12 13 12 13 14 14 13 13 12 12 10 8 6 5 3 3 8 6 6 4 2 4 3 2 7 10 10 8 9
14 12 12 12 13 13 13 14 13 16 13 13 13 13 13 13 13 12 9 7 6 5 5 6 6 5 3 8 16 5 6 5 4 7 9 10 9 6
11 11 12 12 13 13 13 13 14 13 15 12 13 13 13 12 16 10 6 6 4 4 5 7 7 5 4 5 4 20 5 5 7 9 8 7 6 6
10 11 12 12 13 13 13 14 13 13 13 13 13 12 12 10 10 8 8 6 6 6 6 5 6 7 5 5 3 7 16 6 8 9 9 9 9 14
11 11 12 12 12 13 13 13 14 13 14 12 11 11 11 10 8 7 7 10 9 6 6 6 5 6 2 3 5 8 9 14 9 8 8 8 7 6
11 12 12 12 13 13 13 13 12 13 12 11 11 10 9 8 7 8 7 7 6 5 4 3 4 1 2 5 8 8 8 8 14 17 16 11 2 6
12 12 12 13 13 13 13 12 13 13 12 11 10 10 9 8 8 7 7 6 6 5 4 3 4 5 6 6 8 7 10 8 7 8 7 10 8 11
Wind_Direction
310 305 302 303 301 300 305 304 304 298 301 303 308 310 303 308 294 318 311 300 308 304 306 303 297 298 305 302 299 293 292 291 278 272 267 260 264 260
302 305 303 301 305 305 297 298 299 293 295 296 307 300 311 301 305 307 305 296 294 308 302 292 294 304 297 297 298 297 295 288 283 272 269 268 268 251
305 303 304 304 300 303 300 294 298 294 299 290 294 304 304 300 301 301 296 299 298 301 290 297 304 291 290 289 294 288 289 291 292 278 269 271 265 263
308 306 306 306 304 300 297 303 297 295 293 299 300 300 301 306 304 304 297 302 292 293 294 289 291 289 286 287 290 296 293 288 292 288 280 265 269 272
307 309 307 307 303 305 306 301 300 301 302 297 296 299 298 304 305 302 298 297 294 297 295 293 288 296 292 285 286 287 286 280 280 283 275 266 262 264
309 306 307 307 308 311 303 302 309 304 299 298 298 302 303 302 298 298 300 300 299 296 294 287 292 290 291 294 297 295 282 279 280 275 277 279 271 264
307 310 308 310 304 299 302 307 306 299 300 299 299 304 305 304 305 303 302 302 300 297 290 292 305 305 302 294 284 275 273 264 262 266 277 277 282 278
311 311 310 308 309 311 306 302 302 301 307 298 306 303 302 303 302 298 301 299 300 286 308 303 292 290 290 289 289 290 285 272 258 256 263 269 277 278
311 311 312 310 317 306 305 303 313 297 300 305 301 300 298 297 301 298 298 294 290 295 302 284 294 277 282 277 284 286 284 275 271 268 266 265 267 265
312 313 311 313 308 310 307 312 305 314 309 306 298 296 290 294 297 299 295 290 287 285 279 286 303 289 292 299 290 288 274 285 282 276 272 266 264 256
317 313 313 309 310 319 322 315 316 315 308 308 305 308 306 300 296 299 292 293 298 285 300 285 293 289 294 298 281 295 303 301 290 276 269 264 257 246
312 311 309 309 318 321 312 314 314 316 313 310 313 309 305 300 298 295 302 296 295 296 301 286 298 295 296 286 332 306 306 310 304 266 254 253 237 138
310 309 309 324 316 323 317 313 313 315 315 316 309 303 300 300 299 302 297 294 292 287 290 291 297 292 275 294 294 302 319 311 311 66 69 77 109 112
309 310 318 319 325 320 320 320 320 321 313 307 303 304 307 305 304 302 294 286 278 279 285 285 279 277 284 287 291 297 319 320 314 69 63 74 87 93
317 311 321 324 321 315 322 322 324 313 309 305 304 303 304 302 300 294 290 284 281 271 275 271 260 281 272 272 278 288 322 334 339 77 70 57 60 68
316 316 320 319 319 322 321 321 314 311 308 305 305 304 302 301 301 300 299 297 291 296 257 258 278 280 275 258 251 259 215 325 344 67 78 67 60 61
329 322 316 327 318 319 319 316 315 311 308 310 308 307 305 306 305 305 299 298 302 329 331 326 307 302 334 277 240 196 122 78 25 97 92 75 57 68
326 320 326 315 317 319 318 317 314 310 310 310 308 306 309 311 308 308 306 322 347 354 345 343 329 297 229 51 36 82 85 85 68 85 95 97 72 57
324 322 313 317 316 316 314 312 308 310 310 309 307 312 310 311 317 322 346 343 358 357 359 356 349 324 68 68 30 26 81 68 86 71 67 70 84 54
319 315 315 315 316 313 311 308 307 308 310 308 312 309 311 311 313 331 340 355 357 349 356 7 12 10 13 24 62 48 29 60 81 84 81 76 79 83
319 315 315 315 312 308 306 305 305 306 309 310 307 309 311 311 334 338 343 349 355 355 354 359 358 340 297 279 84 67 58 60 82 103 120 101 100 117
316 315 315 311 307 306 305 306 306 308 309 308 308 309 311 312 326 332 338 337 343 341 338 349 17 47 33 90 96 95 82 75 73 71 64 56 128 144
317 315 312 307 306 306 306 307 307 305 305 307 308 312 312 320 329 326 327 331 325 340 353 16 56 64 64 86 95 93 102 93 96 87 66 30 89 87